Location: Novokuznetsk
(53.7500°N, 87.1000°E)
Time: 18:15:42
(UTC+06:00)

ISS - Pass Details

Date: 24 April 2026
Orbit: 414 x 424 km, 51.6° (Epoch: 18 May)

Event Time Altitude Azimuth Distance (km) Brightness Sun altitude
Exits shadow 03:18:49 14° 186° (S) 1,253 -1.8 -12.3°
Maximum altitude 03:20:30 20° 148° (SSE) 1,027 -1.9 -12.1°
Drops below altitude 10° 03:23:04 10° 99° (E) 1,506 -0.4 -11.9°
Sets 03:25:31 0° 82° (E) 2,376 1.1 -11.6°
